If you wish to contribute or participate in the discussions about articles you are invited to join SKYbrary as a registered user

 Actions

San Diego International Airport

From SKYbrary Wiki

KSAN
Airport
ICAO: KSAN – IATA: SAN
Summary
Name San Diego International Airport
Region North America
Territory United States US.gif
Location San Diego, California
Serving San Diego County
Elevation 5.182 m
17 ft5.182 m
Coordinates 32° 44' 0.25" N, 117° 11' 25.51" W
Runways
Designator Length Width Surface ROPS
9/27 2865 m9,399.606 ft
61 m200.131 ft
PEM yes/yes


METAR
Observation KSAN 160151Z 19007KT 10SM OVC019 18/13 A2994 RMK AO2 SLP136 T01830133
Station San Diego, San Diego International-Lindbergh Field
Date/Time 16 June 2019 01:51:00
Wind direction 190°
Wind speed 07 kts
Lowest cloud amount overcast
Temperature 18.3°C
Dew point 13.3°C
Humidity 72%
QNH hPa
Weather condition n/a

RE
Tag(s) Engineered Materials Arresting System
WX
Tag(s) Fog
EMAS
Rwy(s) 27

Description

International airport serving San Diego, California, USA.

Climatology

San Diego enjoys mild, sunny weather throughout the year. Since the San Diego area straddles areas of Mediterranean climate (Csa) to the north, and Semi-arid climate (BSh) to the south and east, the climate is often referred to as "Mediterranean" or "arid-mediterranean". Fog is common in May and June.

Maps

Terrain

Loading map...

Airport Layout

Loading map...


Accidents & Serious Incidents at or in vicinity of KSAN

None on SKYbrary